FW4331 Weather Reports


time (UTC)temp
F
wind
direction
speed
knots
gust
knots
rain 1hr
in
rain 24hr
in
rain mn
in
humidity
%
barometer
mb
20260504024503 46 257 0.0 0.0 0.00 0.00 0.00 56 1014.2
20260504023100 46 257 0.0 0.0 0.00 0.00 0.00 57 1014.1
20260504021601 47 257 0.0 0.0 0.00 0.00 0.00 56 1014.1
20260504020107 48 257 0.0 0.0 0.00 0.00 0.00 52 1014.0
20260504014557 48 257 0.0 0.0 0.00 0.00 0.00 44 1013.7
20260504013155 49 257 0.0 0.0 0.00 0.00 0.00 41 1013.7
20260504011548 50 257 0.0 0.0 0.00 0.00 0.00 40 1013.4
20260504010046 50 257 0.0 0.0 0.00 0.00 0.00 40 1013.3
20260504004546 52 257 0.0 0.0 0.00 0.00 0.00 37 1013.3
20260504003046 54 257 0.0 0.0 0.00 0.00 0.00 32 1013.3
20260504001540 55 256 0.0 0.0 0.00 0.00 0.00 32 1013.3
20260504000045 57 256 0.0 0.0 0.00 0.00 0.00 28 1013.2
20260503234536 58 256 0.0 0.0 0.00 0.00 0.00 24 1012.9
20260503233035 59 287 0.0 0.0 0.00 0.00 0.00 21 1012.9
20260503231533 60 272 0.0 2.6 0.00 0.00 0.00 20 1012.9
20260503230032 61 226 0.0 7.0 0.00 0.00 0.00 19 1012.9
20260503224530 62 249 0.0 2.6 0.00 0.00 0.00 17 1012.7
20260503223026 63 225 0.0 2.6 0.00 0.00 0.00 16 1012.9
20260503221525 64 300 0.9 7.0 0.00 0.00 0.00 16 1012.9
20260503220023 64 249 0.0 4.3 0.00 0.00 0.00 14 1013.1
20260503214621 64 330 1.7 4.3 0.00 0.00 0.00 16 1013.0
20260503213017 63 318 2.6 8.7 0.00 0.00 0.00 16 1013.1
20260503211515 64 291 1.7 9.6 0.00 0.00 0.00 18 1013.1
20260503210012 63 286 3.5 7.8 0.00 0.00 0.00 17 1013.1
20260503204510 63 195 0.9 7.8 0.00 0.00 0.00 17 1013.2
20260503203008 62 4 2.6 9.6 0.00 0.00 0.00 16 1013.4
20260503201506 63 350 2.6 10.4 0.00 0.00 0.00 16 1013.5
20260503200001 62 247 1.7 6.1 0.00 0.00 0.00 18 1013.7
20260503194605 62 228 2.6 13.0 0.00 0.00 0.00 18 1013.9
20260503193104 61 300 0.9 10.4 0.00 0.00 0.00 19 1014.2
20260503191604 61 170 1.7 5.2 0.00 0.00 0.00 22 1014.5
20260503190052 61 224 0.9 10.4 0.00 0.00 0.00 21 1014.7
20260503184559 61 76 0.9 9.6 0.00 0.00 0.00 19 1014.8
20260503183046 60 288 2.6 7.8 0.00 0.00 0.00 20 1014.8
20260503181604 60 274 2.6 12.2 0.00 0.00 0.00 21 1015.0
20260503180050 59 233 1.7 7.8 0.00 0.00 0.00 24 1015.1
20260503174545 58 11 0.9 7.8 0.00 0.00 0.00 23 1015.1
20260503173043 58 348 0.9 12.2 0.00 0.00 0.00 24 1015.4
20260503171530 57 127 0.9 9.6 0.00 0.00 0.00 25 1015.5
20260503081544 41 153 0.0 1.7 0.00 0.00 0.00 54 1014.0
20260503071631 40 322 0.0 0.9 0.00 0.00 0.00 55 1013.5
20260503054507 45 11 0.9 3.5 0.00 0.00 0.00 45 1013.1
20260503053100 46 46 0.9 5.2 0.00 0.00 0.00 44 1013.1
20260503051557 46 312 1.7 7.8 0.00 0.00 0.00 43 1013.2
20260503050052 47 359 0.9 6.1 0.00 0.00 0.00 42 1013.2
20260503044550 47 16 0.9 7.0 0.00 0.00 0.00 42 1013.3
20260503043044 47 324 0.0 6.1 0.00 0.00 0.00 42 1013.3
20260503041540 48 53 0.9 10.4 0.00 0.00 0.00 42 1013.3
20260503040137 48 32 5.2 10.4 0.00 0.00 0.00 41 1013.1
20260503034520 48 35 5.2 10.4 0.00 0.00 0.00 41 1013.2
20260503033030 49 359 4.3 14.8 0.00 0.00 0.00 40 1013.0
20260503031514 50 49 1.7 12.2 0.00 0.00 0.00 39 1012.9
20260503030024 50 22 1.7 12.2 0.00 0.00 0.00 38 1012.9